Time,TemperatureF,DewpointF,PressureIn,WindDirection,WindDirectionDegrees,WindSpeedMPH,WindSpeedGustMPH,Humidity,HourlyPrecipIn,Conditions,Clouds,dailyrainin,SoftwareType,DateUTC
2013-01-28 00:01:00,49.0,42.0,30.01,NNW,338,0.0,1.0,76,0.00,,,0.03,,2013-01-28 08:01:00,
2013-01-28 00:11:00,49.0,42.0,30.01,NNW,338,0.0,1.0,76,0.00,,,0.03,,2013-01-28 08:11:00,
2013-01-28 00:21:00,49.0,42.0,30.02,NW,317,2.0,3.0,78,0.00,,,0.03,,2013-01-28 08:21:00,
2013-01-28 00:31:00,49.0,42.0,30.02,NW,317,1.0,3.0,77,0.00,,,0.03,,2013-01-28 08:31:00,
2013-01-28 00:42:00,49.0,42.0,30.02,NW,317,1.0,3.0,77,0.00,,,0.03,,2013-01-28 08:42:00,
2013-01-28 00:52:00,49.0,42.0,30.02,NW,317,1.0,3.0,77,0.00,,,0.03,,2013-01-28 08:52:00,
2013-01-28 01:01:00,49.0,42.0,30.03,North,350,1.0,3.0,77,0.00,,,0.03,,2013-01-28 09:01:00,
2013-01-28 01:11:00,49.0,42.0,30.03,North,350,1.0,3.0,77,0.00,,,0.03,,2013-01-28 09:11:00,
2013-01-28 01:21:00,48.0,41.0,30.03,NW,313,2.0,3.0,77,0.00,,,0.03,,2013-01-28 09:21:00,
2013-01-28 01:32:00,48.0,41.0,30.03,NW,313,0.0,1.0,78,0.00,,,0.03,,2013-01-28 09:32:00,
2013-01-28 01:41:00,48.0,41.0,30.03,NW,313,0.0,1.0,78,0.00,,,0.03,,2013-01-28 09:41:00,
2013-01-28 01:51:00,48.0,41.0,30.03,NW,313,0.0,1.0,78,0.00,,,0.03,,2013-01-28 09:51:00,
2013-01-28 02:01:00,47.0,41.0,30.03,NW,313,0.0,0.0,80,0.00,,,0.03,,2013-01-28 10:01:00,
2013-01-28 02:11:00,47.0,41.0,30.03,NW,313,0.0,0.0,80,0.00,,,0.03,,2013-01-28 10:11:00,
2013-01-28 02:21:00,47.0,41.0,30.03,NW,313,0.0,0.0,80,0.00,,,0.03,,2013-01-28 10:21:00,
2013-01-28 02:31:00,45.0,39.0,30.03,NW,313,0.0,1.0,78,0.00,,,0.03,,2013-01-28 10:31:00,
2013-01-28 02:41:00,45.0,39.0,30.03,NW,313,0.0,1.0,78,0.00,,,0.03,,2013-01-28 10:41:00,
2013-01-28 02:52:00,46.0,38.0,30.03,NW,317,0.0,2.0,73,0.00,,,0.03,,2013-01-28 10:52:00,
2013-01-28 03:01:00,45.0,39.0,30.04,NNE,33,1.0,3.0,79,0.00,,,0.03,,2013-01-28 11:01:00,
2013-01-28 03:11:00,45.0,39.0,30.04,NNE,33,1.0,3.0,79,0.00,,,0.03,,2013-01-28 11:11:00,
2013-01-28 03:21:00,45.0,38.0,30.04,NNE,23,1.0,2.0,77,0.00,,,0.03,,2013-01-28 11:21:00,
2013-01-28 03:32:00,45.0,37.0,30.04,North,355,1.0,3.0,74,0.00,,,0.03,,2013-01-28 11:32:00,
2013-01-28 03:41:00,45.0,37.0,30.04,North,355,1.0,3.0,74,0.00,,,0.03,,2013-01-28 11:41:00,
2013-01-28 03:52:00,46.0,38.0,30.04,NNW,336,1.0,3.0,73,0.00,,,0.03,,2013-01-28 11:52:00,
2013-01-28 04:03:00,46.0,37.0,30.05,NNW,329,2.0,3.0,71,0.00,,,0.03,,2013-01-28 12:03:00,
2013-01-28 04:11:00,46.0,37.0,30.05,NNW,329,2.0,3.0,71,0.00,,,0.03,,2013-01-28 12:11:00,
2013-01-28 04:22:00,46.0,37.0,30.05,NNW,336,1.0,3.0,72,0.00,,,0.03,,2013-01-28 12:22:00,
2013-01-28 04:32:00,45.0,38.0,30.05,NNW,336,0.0,1.0,75,0.00,,,0.03,,2013-01-28 12:32:00,
2013-01-28 04:42:00,45.0,38.0,30.05,NNW,336,0.0,1.0,75,0.00,,,0.03,,2013-01-28 12:42:00,
2013-01-28 04:52:00,44.0,37.0,30.05,NNW,336,0.0,0.0,77,0.00,,,0.02,,2013-01-28 12:52:00,
2013-01-28 05:02:00,44.0,38.0,30.05,NNW,336,0.0,1.0,79,0.00,,,0.02,,2013-01-28 13:02:00,
2013-01-28 05:11:00,44.0,38.0,30.05,NNW,336,0.0,1.0,79,0.00,,,0.02,,2013-01-28 13:11:00,
2013-01-28 05:22:00,43.0,38.0,30.04,NNW,336,0.0,1.0,81,0.00,,,0.02,,2013-01-28 13:22:00,
2013-01-28 05:32:00,42.0,37.0,30.05,NW,306,2.0,3.0,82,0.00,,,0.02,,2013-01-28 13:32:00,
2013-01-28 05:42:00,42.0,37.0,30.05,NW,306,2.0,3.0,82,0.00,,,0.02,,2013-01-28 13:42:00,
2013-01-28 05:52:00,42.0,37.0,30.05,NW,306,2.0,3.0,82,0.00,,,0.02,,2013-01-28 13:52:00,
2013-01-28 06:02:00,42.0,37.0,30.05,NW,315,0.0,2.0,83,0.00,,,0.02,,2013-01-28 14:02:00,
2013-01-28 06:11:00,42.0,37.0,30.05,NW,315,0.0,2.0,83,0.00,,,0.02,,2013-01-28 14:11:00,
2013-01-28 06:22:00,42.0,38.0,30.06,NW,315,0.0,2.0,84,0.00,,,0.02,,2013-01-28 14:22:00,
2013-01-28 06:32:00,42.0,38.0,30.07,NE,53,0.0,2.0,85,0.00,,,0.02,,2013-01-28 14:32:00,
2013-01-28 06:42:00,42.0,38.0,30.07,NE,53,0.0,2.0,85,0.00,,,0.02,,2013-01-28 14:42:00,
2013-01-28 06:52:00,42.0,38.0,30.07,NE,53,0.0,2.0,85,0.00,,,0.02,,2013-01-28 14:52:00,
2013-01-28 07:02:00,41.0,37.0,30.08,NE,53,0.0,1.0,87,0.00,,,0.02,,2013-01-28 15:02:00,
2013-01-28 07:11:00,41.0,37.0,30.08,NE,53,0.0,1.0,87,0.00,,,0.02,,2013-01-28 15:11:00,
2013-01-28 07:23:00,41.0,38.0,30.09,NE,46,1.0,3.0,88,0.00,,,0.02,,2013-01-28 15:23:00,
2013-01-28 07:33:00,41.0,38.0,30.09,NE,46,0.0,1.0,90,0.00,,,0.02,,2013-01-28 15:33:00,
2013-01-28 07:42:00,41.0,38.0,30.09,NE,46,0.0,1.0,90,0.00,,,0.02,,2013-01-28 15:42:00,
2013-01-28 07:52:00,41.0,38.0,30.09,NE,46,0.0,0.0,90,0.00,,,0.02,,2013-01-28 15:52:00,
2013-01-28 08:03:00,43.0,40.0,30.09,NE,46,0.0,1.0,89,0.00,,,0.02,,2013-01-28 16:03:00,
2013-01-28 08:12:00,43.0,40.0,30.09,NE,46,0.0,1.0,89,0.00,,,0.02,,2013-01-28 16:12:00,
2013-01-28 08:21:00,44.0,41.0,30.09,NE,46,0.0,0.0,88,0.00,,,0.02,,2013-01-28 16:21:00,
2013-01-28 08:32:00,46.0,41.0,30.09,NE,46,0.0,0.0,83,0.00,,,0.02,,2013-01-28 16:32:00,
2013-01-28 08:42:00,46.0,41.0,30.09,NE,46,0.0,0.0,83,0.00,,,0.02,,2013-01-28 16:42:00,
2013-01-28 08:52:00,46.0,41.0,30.09,NE,46,0.0,0.0,83,0.00,,,0.02,,2013-01-28 16:52:00,
2013-01-28 09:01:00,48.0,41.0,30.10,NE,53,1.0,3.0,78,0.00,,,0.01,,2013-01-28 17:01:00,
2013-01-28 09:11:00,48.0,41.0,30.10,NE,53,1.0,3.0,78,0.00,,,0.01,,2013-01-28 17:11:00,
2013-01-28 09:22:00,49.0,42.0,30.10,NE,55,1.0,2.0,76,0.00,,,0.01,,2013-01-28 17:22:00,
2013-01-28 09:32:00,50.0,42.0,30.10,NE,54,0.0,2.0,75,0.00,,,0.01,,2013-01-28 17:32:00,
2013-01-28 09:41:00,50.0,42.0,30.10,NE,54,0.0,2.0,75,0.00,,,0.01,,2013-01-28 17:41:00,
2013-01-28 09:52:00,50.0,42.0,30.10,NE,54,0.0,2.0,75,0.00,,,0.01,,2013-01-28 17:52:00,
2013-01-28 10:02:00,52.0,42.0,30.11,NW,314,1.0,3.0,68,0.00,,,0.01,,2013-01-28 18:02:00,
2013-01-28 10:12:00,52.0,42.0,30.11,NW,314,1.0,3.0,68,0.00,,,0.01,,2013-01-28 18:12:00,
2013-01-28 10:23:00,53.0,40.0,30.12,NW,311,2.0,5.0,61,0.00,,,0.01,,2013-01-28 18:23:00,
2013-01-28 10:33:00,54.0,39.0,30.12,NW,308,1.0,7.0,56,0.00,,,0.01,,2013-01-28 18:33:00,
2013-01-28 10:42:00,54.0,39.0,30.12,NW,308,1.0,7.0,56,0.00,,,0.01,,2013-01-28 18:42:00,
2013-01-28 10:52:00,55.0,36.0,30.12,NNW,329,2.0,8.0,49,0.00,,,0.01,,2013-01-28 18:52:00,
2013-01-28 11:01:00,56.0,34.0,30.12,NNW,336,4.0,12.0,43,0.00,,,0.01,,2013-01-28 19:01:00,
2013-01-28 11:11:00,56.0,34.0,30.12,NNW,336,4.0,12.0,43,0.00,,,0.01,,2013-01-28 19:11:00,
2013-01-28 11:21:00,56.0,34.0,30.12,NNW,336,4.0,12.0,43,0.00,,,0.01,,2013-01-28 19:21:00,
2013-01-28 11:32:00,58.0,30.0,30.11,NW,304,6.0,12.0,34,0.00,,,0.01,,2013-01-28 19:32:00,
2013-01-28 11:42:00,58.0,30.0,30.11,NW,304,6.0,12.0,34,0.00,,,0.01,,2013-01-28 19:42:00,
2013-01-28 11:52:00,58.0,29.0,30.10,NW,307,6.0,12.0,33,0.00,,,0.01,,2013-01-28 19:52:00,
2013-01-28 12:02:00,59.0,30.0,30.10,NW,312,6.0,12.0,33,0.00,,,0.01,,2013-01-28 20:02:00,
2013-01-28 12:11:00,59.0,30.0,30.10,NW,312,6.0,12.0,33,0.00,,,0.01,,2013-01-28 20:11:00,
2013-01-28 12:21:00,58.0,28.0,30.10,NNW,328,3.0,9.0,31,0.00,,,0.01,,2013-01-28 20:21:00,
2013-01-28 12:32:00,59.0,27.0,30.09,WNW,294,6.0,10.0,29,0.00,,,0.01,,2013-01-28 20:32:00,
2013-01-28 12:42:00,59.0,27.0,30.09,WNW,294,6.0,10.0,29,0.00,,,0.01,,2013-01-28 20:42:00,
2013-01-28 12:52:00,59.0,27.0,30.09,WNW,294,6.0,10.0,29,0.00,,,0.01,,2013-01-28 20:52:00,
2013-01-28 13:02:00,59.0,27.0,30.08,West,279,7.0,12.0,29,0.00,,,0.01,,2013-01-28 21:02:00,
2013-01-28 13:11:00,59.0,27.0,30.08,West,279,7.0,12.0,29,0.00,,,0.01,,2013-01-28 21:11:00,
2013-01-28 13:22:00,59.0,27.0,30.08,West,279,7.0,12.0,29,0.00,,,0.01,,2013-01-28 21:22:00,
2013-01-28 13:33:00,60.0,27.0,30.08,WNW,289,5.0,12.0,28,0.00,,,0.00,,2013-01-28 21:33:00,
2013-01-28 13:43:00,60.0,27.0,30.08,WNW,289,5.0,12.0,28,0.00,,,0.00,,2013-01-28 21:43:00,
2013-01-28 13:53:00,60.0,27.0,30.08,WNW,289,5.0,12.0,28,0.00,,,0.00,,2013-01-28 21:53:00,
2013-01-28 14:01:00,60.0,28.0,30.08,West,277,4.0,12.0,29,0.00,,,0.00,,2013-01-28 22:01:00,
2013-01-28 14:11:00,60.0,28.0,30.08,West,277,4.0,12.0,29,0.00,,,0.00,,2013-01-28 22:11:00,
2013-01-28 14:22:00,60.0,28.0,30.08,West,277,4.0,12.0,29,0.00,,,0.00,,2013-01-28 22:22:00,
2013-01-28 14:32:00,60.0,26.0,30.05,North,350,6.0,16.0,27,0.00,,,0.00,,2013-01-28 22:32:00,
2013-01-28 14:42:00,60.0,26.0,30.05,North,350,6.0,16.0,27,0.00,,,0.00,,2013-01-28 22:42:00,
2013-01-28 14:52:00,61.0,29.0,30.06,WNW,299,3.0,9.0,30,0.00,,,0.00,,2013-01-28 22:52:00,
2013-01-28 15:01:00,60.0,31.0,30.06,WNW,299,10.0,20.0,33,0.00,,,0.00,,2013-01-28 23:01:00,
2013-01-28 15:11:00,60.0,31.0,30.06,WNW,299,10.0,20.0,33,0.00,,,0.00,,2013-01-28 23:11:00,
2013-01-28 15:21:00,60.0,36.0,30.06,WSW,258,9.0,18.0,40,0.00,,,0.00,,2013-01-28 23:21:00,
2013-01-28 15:32:00,59.0,34.0,30.06,WSW,245,13.0,21.0,39,0.00,,,0.00,,2013-01-28 23:32:00,
2013-01-28 15:41:00,59.0,34.0,30.06,WSW,245,13.0,21.0,39,0.00,,,0.00,,2013-01-28 23:41:00,
2013-01-28 15:52:00,59.0,35.0,30.06,West,277,9.0,18.0,40,0.00,,,0.00,,2013-01-28 23:52:00,
2013-01-28 16:02:00,58.0,36.0,30.07,WSW,254,10.0,20.0,44,0.00,,,0.00,,2013-01-29 00:02:00,
2013-01-28 16:11:00,58.0,36.0,30.07,WSW,254,10.0,20.0,44,0.00,,,0.00,,2013-01-29 00:11:00,
2013-01-28 16:21:00,58.0,36.0,30.07,WSW,254,10.0,20.0,44,0.00,,,0.00,,2013-01-29 00:21:00,
2013-01-28 16:32:00,57.0,35.0,30.08,WNW,296,6.0,13.0,44,0.00,,,0.00,,2013-01-29 00:32:00,
2013-01-28 16:41:00,57.0,35.0,30.08,WNW,296,6.0,13.0,44,0.00,,,0.00,,2013-01-29 00:41:00,
2013-01-28 16:52:00,57.0,35.0,30.08,WNW,296,6.0,13.0,44,0.00,,,0.00,,2013-01-29 00:52:00,
2013-01-28 17:01:00,57.0,36.0,30.09,WSW,248,7.0,16.0,45,0.00,,,0.00,,2013-01-29 01:01:00,
2013-01-28 17:11:00,57.0,36.0,30.09,WSW,248,7.0,16.0,45,0.00,,,0.00,,2013-01-29 01:11:00,
2013-01-28 17:22:00,57.0,36.0,30.09,WSW,248,7.0,16.0,45,0.00,,,0.00,,2013-01-29 01:22:00,
2013-01-28 17:32:00,56.0,36.0,30.09,West,269,9.0,13.0,46,0.00,,,0.00,,2013-01-29 01:32:00,
2013-01-28 17:41:00,56.0,36.0,30.09,West,269,9.0,13.0,46,0.00,,,0.00,,2013-01-29 01:41:00,
2013-01-28 17:52:00,56.0,37.0,30.10,WNW,293,10.0,16.0,48,0.00,,,0.00,,2013-01-29 01:52:00,
2013-01-28 18:01:00,56.0,39.0,30.09,WSW,258,8.0,13.0,52,0.00,,,0.00,,2013-01-29 02:01:00,
2013-01-28 18:11:00,56.0,39.0,30.09,WSW,258,8.0,13.0,52,0.00,,,0.00,,2013-01-29 02:11:00,
2013-01-28 18:21:00,56.0,39.0,30.09,WSW,258,8.0,13.0,52,0.00,,,0.00,,2013-01-29 02:21:00,
2013-01-28 18:32:00,55.0,38.0,30.10,West,267,5.0,10.0,53,0.00,,,0.00,,2013-01-29 02:32:00,
2013-01-28 18:41:00,55.0,38.0,30.10,West,267,5.0,10.0,53,0.00,,,0.00,,2013-01-29 02:41:00,
2013-01-28 18:53:00,55.0,36.0,30.11,WSW,252,3.0,8.0,48,0.00,,,0.00,,2013-01-29 02:53:00,
2013-01-28 19:02:00,55.0,31.0,30.12,WNW,302,3.0,6.0,40,0.00,,,0.00,,2013-01-29 03:02:00,
2013-01-28 19:11:00,55.0,31.0,30.12,WNW,302,3.0,6.0,40,0.00,,,0.00,,2013-01-29 03:11:00,
2013-01-28 19:21:00,55.0,31.0,30.12,WNW,302,3.0,6.0,40,0.00,,,0.00,,2013-01-29 03:21:00,
2013-01-28 19:31:00,55.0,28.0,30.12,WNW,300,3.0,9.0,35,0.00,,,0.00,,2013-01-29 03:31:00,
2013-01-28 19:41:00,55.0,28.0,30.12,WNW,300,3.0,9.0,35,0.00,,,0.00,,2013-01-29 03:41:00,
2013-01-28 19:53:00,55.0,29.0,30.12,West,270,3.0,6.0,36,0.00,,,0.00,,2013-01-29 03:53:00,
2013-01-28 20:01:00,54.0,28.0,30.13,West,279,2.0,3.0,36,0.00,,,0.00,,2013-01-29 04:01:00,
2013-01-28 20:11:00,54.0,28.0,30.13,West,279,2.0,3.0,36,0.00,,,0.00,,2013-01-29 04:11:00,
2013-01-28 20:21:00,54.0,28.0,30.13,NW,306,5.0,10.0,37,0.00,,,0.00,,2013-01-29 04:21:00,
2013-01-28 20:32:00,53.0,28.0,30.14,NNW,327,3.0,7.0,38,0.00,,,0.00,,2013-01-29 04:32:00,
2013-01-28 20:41:00,53.0,28.0,30.14,NNW,327,3.0,7.0,38,0.00,,,0.00,,2013-01-29 04:41:00,
2013-01-28 20:51:00,53.0,29.0,30.14,NW,322,0.0,6.0,39,0.00,,,0.00,,2013-01-29 04:51:00,
2013-01-28 21:03:00,52.0,28.0,30.14,NW,317,0.0,3.0,40,0.00,,,0.00,,2013-01-29 05:03:00,
2013-01-28 21:12:00,52.0,28.0,30.14,NW,317,0.0,3.0,40,0.00,,,0.00,,2013-01-29 05:12:00,
2013-01-28 21:21:00,52.0,28.0,30.14,NW,317,0.0,3.0,40,0.00,,,0.00,,2013-01-29 05:21:00,
2013-01-28 21:32:00,52.0,29.0,30.15,NNW,334,5.0,9.0,41,0.00,,,0.00,,2013-01-29 05:32:00,
2013-01-28 21:42:00,52.0,29.0,30.15,NNW,334,5.0,9.0,41,0.00,,,0.00,,2013-01-29 05:42:00,
2013-01-28 21:52:00,52.0,29.0,30.15,NNW,338,4.0,8.0,41,0.00,,,0.00,,2013-01-29 05:52:00,
2013-01-28 22:01:00,52.0,29.0,30.15,NNW,338,4.0,8.0,41,0.00,,,0.00,,2013-01-29 06:01:00,
2013-01-28 22:11:00,52.0,29.0,30.15,NNW,338,4.0,8.0,41,0.00,,,0.00,,2013-01-29 06:11:00,
2013-01-28 22:21:00,51.0,30.0,30.16,NNW,345,0.0,2.0,44,0.00,,,0.00,,2013-01-29 06:21:00,
2013-01-28 22:31:00,49.0,31.0,30.16,NNW,345,0.0,1.0,50,0.00,,,0.00,,2013-01-29 06:31:00,
2013-01-28 22:41:00,49.0,31.0,30.16,NNW,345,0.0,1.0,50,0.00,,,0.00,,2013-01-29 06:41:00,
2013-01-28 22:52:00,48.0,32.0,30.17,NNW,345,0.0,1.0,53,0.00,,,0.00,,2013-01-29 06:52:00,
2013-01-28 23:01:00,47.0,33.0,30.16,NNW,345,0.0,2.0,58,0.00,,,0.00,,2013-01-29 07:01:00,
2013-01-28 23:11:00,47.0,33.0,30.16,NNW,345,0.0,2.0,58,0.00,,,0.00,,2013-01-29 07:11:00,
2013-01-28 23:21:00,47.0,32.0,30.17,NNE,17,1.0,3.0,55,0.00,,,0.00,,2013-01-29 07:21:00,
2013-01-28 23:31:00,47.0,32.0,30.17,NNE,17,0.0,2.0,56,0.00,,,0.00,,2013-01-29 07:31:00,
2013-01-28 23:41:00,47.0,32.0,30.17,NNE,17,0.0,2.0,56,0.00,,,0.00,,2013-01-29 07:41:00,
2013-01-28 23:51:00,46.0,32.0,30.17,NNE,17,0.0,2.0,58,0.00,,,0.00,,2013-01-29 07:51:00,